FW6400 Weather Reports


Display with metric or nautical units.
time (UTC)temp
F
wind
direction
speed
MPH
gust
MPH
rain 1hr
in
rain 24hr
in
rain mn
in
humidity
%
barometer
mb
20260506171553 62 1.0 2.0 0.00 0.00 0.00 89 1010.7
20260506170116 62 0.0 3.0 0.00 0.00 0.00 88 1010.9
20260506164545 62 1.0 4.0 0.00 0.00 0.00 87 1011.2
20260506163004 63 1.0 4.0 0.00 0.00 0.00 86 1011.6
20260506161543 63 1.0 4.0 0.00 0.00 0.00 85 1011.7
20260506160025 63 1.0 4.0 0.00 0.00 0.00 86 1011.8
20260506154509 63 1.0 7.0 0.00 0.00 0.00 84 1011.9
20260506153040 64 1.0 4.0 0.00 0.00 0.00 84 1011.9
20260506151506 66 1.0 4.0 0.00 0.00 0.00 82 1011.9
20260506150011 65 1.0 4.0 0.00 0.00 0.00 83 1011.9
20260506144608 65 1.0 3.0 0.00 0.00 0.00 83 1012.2
20260506143045 65 1.0 5.0 0.00 0.00 0.00 83 1012.4
20260506141537 65 1.0 4.0 0.00 0.00 0.00 84 1012.4
20260506140022 64 0.0 3.0 0.00 0.00 0.00 86 1012.3
20260506134559 63 0.0 4.0 0.00 0.00 0.00 86 1012.4
20260506133043 63 0.0 4.0 0.00 0.00 0.00 87 1012.5
20260506131618 63 1.0 3.0 0.00 0.00 0.00 86 1012.7
20260506130058 63 1.0 5.0 0.00 0.00 0.00 87 1012.8
20260506124524 62 1.0 5.0 0.00 0.00 0.00 88 1012.8
20260506123057 61 1.0 4.0 0.00 0.00 0.00 89 1012.7
20260506121524 60 1.0 6.0 0.00 0.00 0.00 90 1012.7
20260506120002 60 0.0 3.0 0.00 0.00 0.00 91 1012.6
20260506114555 59 0.0 3.0 0.00 0.00 0.00 92 1012.5
20260506113035 59 1.0 3.0 0.00 0.00 0.00 93 1012.5
20260506111517 58 0.0 3.0 0.00 0.00 0.00 93 1012.7
20260506110105 58 1.0 3.0 0.00 0.00 0.00 94 1012.6
20260506104538 58 0.0 4.0 0.00 0.00 0.00 94 1012.5
20260506103009 57 0.0 3.0 0.00 0.00 0.00 94 1012.4
20260506101547 57 1.0 3.0 0.00 0.00 0.00 95 1012.4
20260506100030 57 1.0 8.0 0.00 0.00 0.00 95 1012.4
20260506094542 57 0.0 3.0 0.00 0.00 0.00 94 1012.2
20260506093025 57 0.0 4.0 0.00 0.00 0.00 94 1012.1
20260506091554 57 0.0 3.0 0.00 0.00 0.00 94 1012.5
20260506090043 57 0.0 4.0 0.00 0.00 0.00 94 1012.6
20260506084617 57 0.0 4.0 0.00 0.00 0.00 94 1012.8
20260506083050 57 0.0 3.0 0.00 0.00 0.00 94 1012.9
20260506081513 57 0.0 3.0 0.00 0.00 0.00 94 1012.7
20260506073003 58 0.0 9.0 0.00 0.00 0.00 93 1012.7
20260506071556 58 0.0 4.0 0.00 0.00 0.00 93 1012.8
20260506061554 58 0.0 5.0 0.00 0.00 0.00 91 1013.0
20260506050107 59 1.0 4.0 0.00 0.00 0.00 89 1013.3
20260506044547 59 0.0 6.0 0.00 0.00 0.00 89 1013.4
20260506043034 59 0.0 6.0 0.00 0.00 0.00 89 1013.2
20260506041505 59 1.0 6.0 0.00 0.00 0.00 88 1013.3
20260506040107 59 1.0 5.0 0.00 0.00 0.00 88 1013.2
20260506034538 59 0.0 5.0 0.00 0.00 0.00 88 1013.1
20260506033018 59 1.0 5.0 0.00 0.00 0.00 88 1013.4
20260506031552 59 1.0 4.0 0.00 0.00 0.00 87 1013.3
20260506030042 59 1.0 8.0 0.00 0.00 0.00 87 1013.3
20260506024510 59 1.0 6.0 0.00 0.00 0.00 86 1013.4
20260506023028 60 2.0 9.0 0.00 0.00 0.00 86 1013.3
20260506021514 60 2.0 7.0 0.00 0.00 0.00 86 1013.4
20260506014555 60 1.0 9.0 0.00 0.00 0.00 86 1013.3
20260506013015 59 3.0 8.0 0.00 0.00 0.00 86 1013.0
20260506011535 59 2.0 7.0 0.00 0.00 0.00 87 1013.1
20260506010055 59 1.0 4.0 0.00 0.00 0.00 87 1013.0
20260506004519 60 1.0 6.0 0.00 0.00 0.00 86 1012.8
20260506003005 60 1.0 8.0 0.00 0.00 0.00 86 1012.8
20260506001542 60 1.0 6.0 0.00 0.00 0.00 85 1012.8
20260506000020 61 1.0 5.0 0.00 0.00 0.00 83 1012.7
20260505234503 62 1.0 8.0 0.00 0.00 0.00 82 1012.6
20260505233050 62 2.0 6.0 0.00 0.00 0.00 80 1012.5
20260505231504 63 2.0 9.0 0.00 0.00 0.00 78 1012.4
20260505230051 64 2.0 8.0 0.00 0.00 0.00 77 1012.4
20260505224510 64 2.0 7.0 0.00 0.00 0.00 75 1012.2
20260505223108 65 2.0 6.0 0.00 0.00 0.00 74 1012.1
20260505221526 65 2.0 8.0 0.00 0.00 0.00 74 1012.0
20260505220009 65 1.0 6.0 0.00 0.00 0.00 74 1012.0
20260505214619 66 2.0 7.0 0.00 0.00 0.00 74 1011.8
20260505213040 66 2.0 9.0 0.00 0.00 0.00 74 1011.7
20260505211505 66 2.0 9.0 0.00 0.00 0.00 75 1011.5
20260505210058 66 3.0 7.0 0.00 0.00 0.00 73 1011.6
20260505204545 67 2.0 7.0 0.00 0.00 0.00 73 1011.6
20260505203005 68 2.0 13.0 0.00 0.00 0.00 72 1011.6
20260505201539 68 2.0 11.0 0.00 0.00 0.00 72 1011.8
20260505200018 68 3.0 12.0 0.00 0.00 0.00 72 1011.9
20260505194546 68 2.0 7.0 0.00 0.00 0.00 72 1012.0
20260505193022 67 2.0 7.0 0.00 0.00 0.00 73 1012.2
20260505191506 68 2.0 5.0 0.00 0.00 0.00 72 1012.2
20260505190029 68 2.0 5.0 0.00 0.00 0.00 73 1012.5
20260505184513 69 2.0 10.0 0.00 0.00 0.00 72 1012.6
20260505183051 71 1.0 4.0 0.00 0.00 0.00 71 1012.6
20260505181526 70 2.0 8.0 0.00 0.00 0.00 70 1012.8
20260505180052 72 1.0 5.0 0.00 0.00 0.00 69 1012.9
20260505174601 71 2.0 8.0 0.00 0.00 0.00 70 1012.9
20260505173034 71 1.0 5.0 0.00 0.00 0.00 71 1013.0